Find Starlink 31853

NORAD ID: 59933 Int'l Des: 2024-106 Owner: SPXS Country: US Constellation: starlink operational
LEOCIRCULAR

Live Position

Loading 3D Globe...

About Starlink 31853

Description loading...

Upcoming Passes

Passes for default location (London). Set your location on the main map for personalized predictions.

Altitude History

Loading altitude history...

Two-Line Element Set

1 59933U 24106M 26124.40560402 .00000089 00000-0 12760-4 0 9995
2 59933 43.0013 17.8874 0001370 272.5954 87.4740 15.27573049109049
Epoch: May 4, 2026 • Age: 18 hours

Current Status

Altitude 494.6 km
Velocity 7.62 km/s
Sub-Earth Point -40.75°S, 24.17°W
Launch Date Jun 1, 2024
Age 1.9 years
Type internet

Technical Details

Classification Payload
Mass 730.00 kg
Dry Mass 700.00 kg
Total Mass 730.00 kg
Length 0.30 m
Diameter 4.10 m
Span 29.00 m
Shape Box + pan
Manufacturer SPXS
Bus Type Starlink V2M
Phase Status In Orbit
Owner/State SPXS/US

Most Searched